Regional Weather Roundup
Issued by NWS Sioux Falls, SD

Home | Current Version | Previous Version | Text Only | Print | Product List | Glossary On
Versions: 1 2 3 4 5 6 7 8 9 10 11 12 13 14 15 16 17 18 19 20 21 22 23 24 25 26 27 28 29 30 31 32 33 34 35 36 37 38 39 40 41 42 43 44 45 46 47 48 49 50
000
ASUS43 KFSD 171910
RWRFSD

WEATHER ROUNDUP FOR SE SOUTH DAKOTA/SW MINNESOTA/NW IOWA
NATIONAL WEATHER SERVICE SIOUX FALLS SD
200 PM CDT TUE OCT 17 2017

NOTE: "FAIR" INDICATES FEW OR NO CLOUDS BELOW 12,000 FEET WITH NO
SIGNIFICANT WEATHER AND OR OBSTRUCTIONS TO VISIBILITY.


SDZ038>040-050-052>070-172000-
SOUTHEAST SOUTH DAKOTA

CITY           SKY/WX    TMP DP  RH WIND       PRES   REMARKS
BROOKINGS      SUNNY     74  36  25 W12       29.98F
CHAMBERLAIN    SUNNY     78  43  28 SW8       29.97F
HURON          SUNNY     76  39  26 MISG      29.94F
MADISON        FAIR      72  37  28 W13       30.00F
MITCHELL       SUNNY     78  36  21 S13       29.97F
SIOUX FALLS    SUNNY     75  44  33 S8        30.00F
WINNER         FAIR      79  40  24 S10       29.98F
YANKTON        SUNNY     74  45  35 SW6       30.01F
$$

MNZ071-072-080-081-089-090-097-098-172000-
SOUTHWEST MINNESOTA

CITY           SKY/WX    TMP DP  RH WIND       PRES   REMARKS
FAIRMONT       SUNNY     75  41  29 MISG      30.01F
JACKSON        SUNNY     73  36  25 SW9G16    30.01F
LUVERNE        SUNNY     73  34  23 W9        30.01F
MARSHALL       SUNNY     74  38  27 W13       29.97F
MONTEVIDEO     SUNNY     79  45  29 SW9       29.95F
PIPESTONE      SUNNY     73  37  27 W8        30.00F
REDWOOD FALLS  SUNNY     74  38  27 SW8       29.96F
TRACY          SUNNY     75  38  25 W7        29.99F
WORTHINGTON    SUNNY     73  38  27 VRB7      30.02F
$$

IAZ001>003-012>014-020>022-031-032-NEZ013-014-SDZ071-172000-
NORTHWEST IOWA

CITY           SKY/WX    TMP DP  RH WIND       PRES   REMARKS
CHEROKEE       SUNNY     71  46  40 SW3       30.02F
DENISON        SUNNY     68  43  40 S7G16     30.05F
ESTHERVILLE    SUNNY     72  41  32 SW9       30.01F
LE MARS        SUNNY     75  41  29 VRB6      30.01F
ORANGE CITY    SUNNY     75  41  29 SW6       30.02F
SHELDON        SUNNY     75  37  25 SW9       30.00F
SIOUX CITY     SUNNY     71  47  42 SE7       30.02F
SPENCER        SUNNY     75  39  27 VRB7      30.01F
STORM LAKE     SUNNY     70  43  37 SW9       30.03F
$$

ABBREVIATIONS USED IN REMARKS
   TC - TEMPERATURE IN CELSIUS
  WCI - WIND CHILL INDEX
   HX - HEAT INDEX
  VSB - VISIBILITY





USA.gov is the U.S. government's official web portal to all federal, state and local government web resources and services.